PROBA-1 1 26958U 01049B 26130.49898685 .00002388 00000+0 15753-3 0 9997 2 26958 97.9611 137.7184 0053777 250.0372 109.5058 15.07355778337946 CUTE-1 (CO-55) 1 27844U 03031E 26130.52442412 .00000213 00000+0 11124-3 0 9995 2 27844 98.6748 139.5562 0008405 298.6352 61.3981 14.24311987186319 CUBESAT XI-IV (CO-57) 1 27848U 03031J 26130.49403878 .00000172 00000+0 94879-4 0 9991 2 27848 98.6781 139.2691 0008585 319.4878 40.5660 14.23600267186015 APRIZESAT 4 1 35684U 09041D 26130.15744647 .00000514 00000+0 67924-4 0 9991 2 35684 98.1417 204.7206 0044692 85.2804 275.3511 14.83823630905726 APRIZESAT 3 1 35686U 09041F 26130.37957897 .00001613 00000+0 14396-3 0 9995 2 35686 98.2022 281.8067 0061491 190.5978 169.3950 14.96116625910728 PROBA-2 1 36037U 09059B 26130.48250057 .00000122 00000+0 38875-4 0 9994 2 36037 98.2451 314.3589 0014078 41.7117 318.5151 14.54846156876047 APRIZESAT 5 1 37792U 11044E 26130.37567141 .00000594 00000+0 82283-4 0 9998 2 37792 98.2444 62.3505 0053401 123.6171 237.0152 14.80995435793193 APRIZESAT 6 1 37793U 11044F 26130.35217698 .00000392 00000+0 62903-4 0 9999 2 37793 98.2384 40.0767 0042480 205.4341 270.5277 14.76863559791568 PROBA-V 1 39159U 13021A 26130.51669286 .00000058 00000+0 43505-4 0 9992 2 39159 98.3569 110.9878 0003099 233.9903 126.0989 14.23588841675752 APRIZESAT 7 1 39416U 13066A 26130.45097280 .00000793 00000+0 84116-4 0 9998 2 39416 97.7684 84.2215 0035302 338.9565 21.0199 14.91476578675608 APRIZESAT 8 1 39425U 13066K 26130.40692111 .00000794 00000+0 91889-4 0 9993 2 39425 97.8199 78.4104 0047216 51.4696 309.0739 14.87569859674058 BUGSAT-1 (TITA) 1 40014U 14033E 26130.53012213 .00003167 00000+0 17124-3 0 9993 2 40014 98.0403 220.8921 0027204 311.1496 48.7387 15.15199072650131 SAUDISAT 4 1 40016U 14033G 26130.38060884 .00000516 00000+0 74844-4 0 9993 2 40016 97.7533 277.8350 0044499 194.6478 165.3448 14.79488004640486 APRIZESAT 9 1 40018U 14033J 26130.33330990 .00000317 00000+0 54307-4 0 9999 2 40018 97.9005 264.4688 0065288 322.9821 36.6892 14.74169895637980 APRIZESAT 10 1 40019U 14033K 26130.30322697 .00000308 00000+0 56174-4 0 9996 2 40019 97.9595 258.1201 0079579 35.6338 325.0145 14.70850240636684 TECHDEMOSAT-1 (TDS-1) 1 40076U 14037H 26130.52731649 .00005833 00000+0 33732-3 0 9990 2 40076 98.3811 119.0299 0007438 48.2782 311.9082 15.12704682642533 TECHNOSAT 1 42829U 17042E 26130.41384010 .00001426 00000+0 10518-3 0 9992 2 42829 97.4240 289.5260 0016754 218.9328 141.0693 15.04722341481029 FLYING LAPTOP 1 42831U 17042G 26130.52057413 .00002575 00000+0 20615-3 0 9996 2 42831 97.4524 287.5483 0017678 251.3216 108.6089 15.00897457480805 HAWK-A 1 43765U 18099H 26130.40719126 .00004544 00000+0 18624-3 0 9994 2 43765 97.3944 183.1439 0036496 60.3806 300.1059 15.24165628407349 HAWK-B 1 43794U 18099AN 26130.12113892 .00004412 00000+0 19121-3 0 9990 2 43794 97.3993 182.3556 0033951 78.3387 282.1656 15.22376696407240 HAWK-C 1 43799U 18099AT 26130.40253787 .00005134 00000+0 18855-3 0 9999 2 43799 97.3922 183.8683 0042264 60.8615 299.6844 15.27529486408145 SALSAT 1 46495U 20068K 26130.52765537 .00005348 00000+0 19112-3 0 9992 2 46495 97.8862 131.3179 0011590 78.1139 282.1399 15.29241566309603 HAWK-2C 1 47502U 21006CT 26130.39357331 .00004300 00000+0 13217-3 0 9996 2 47502 97.2309 175.4650 0006132 351.4771 8.6367 15.34207617293705 HAWK-2A 1 47505U 21006CW 26130.13552720 .00004559 00000+0 13995-3 0 9999 2 47505 97.2355 175.8673 0005855 357.7343 2.3873 15.34217795293669 HAWK-2B 1 47508U 21006CZ 26130.39333156 .00004681 00000+0 14346-3 0 9997 2 47508 97.2225 174.5139 0006240 353.2600 6.8559 15.34248875293705 HAWK-3B 1 48931U 21059BE 26130.47911769 .00026522 00000+0 25484-3 0 9990 2 48931 97.6695 323.7123 0006079 109.2240 250.9677 15.66556681271948 HAWK-3C 1 48948U 21059BX 26130.54270359 .00029462 00000+0 28272-3 0 9993 2 48948 97.6827 329.4008 0006488 108.9134 251.2829 15.66566364271953 HAWK-3A 1 48957U 21059CG 26130.54256559 .00028141 00000+0 27017-3 0 9998 2 48957 97.6768 326.6368 0006219 109.4149 250.7783 15.66565483271953 HAWK-5C 1 52754U 22057Y 26130.48738127 .00012735 00000+0 22861-3 0 9990 2 52754 97.6545 287.7821 0004527 193.4251 166.6880 15.50037103220508 HAWK-5B 1 52756U 22057AA 26130.42266118 .00012441 00000+0 22338-3 0 9995 2 52756 97.6555 286.0576 0004857 190.3376 169.7776 15.50034884220499 HAWK-5A 1 52757U 22057AB 26130.48699122 .00012881 00000+0 23119-3 0 9993 2 52757 97.6551 286.9593 0005004 192.8489 167.2635 15.50036168220507 HAWK-6B 1 55324U 23011A 26130.53791675 .00002828 00000+0 12739-3 0 9995 2 55324 40.4976 211.6097 0002150 146.3466 213.7480 15.22597474182108 HAWK-6C 1 55326U 23011C 26130.27490852 .00002724 00000+0 12299-3 0 9997 2 55326 40.4964 209.9847 0002290 123.4078 236.6950 15.22594767182074 HAWK-6A 1 55327U 23011D 26130.27495235 .00002903 00000+0 13056-3 0 9999 2 55327 40.4976 211.6059 0001929 122.3651 237.7345 15.22595963182075 HAWK-7A 1 56191U 23054P 26130.43410627 .00003629 00000+0 13984-3 0 9992 2 56191 97.2745 18.7329 0003836 140.8883 219.2634 15.26956326171269 HAWK-7B 1 56193U 23054R 26130.43403753 .00002729 00000+0 10582-3 0 9997 2 56193 97.2773 16.9832 0002851 139.9061 220.2389 15.26955231171267 HAWK-7C 1 56200U 23054Y 26130.43392959 .00003669 00000+0 14134-3 0 9992 2 56200 97.2749 17.7636 0003315 134.3112 225.8399 15.26961048171267